sat.trackr.live / text

‹ back to catalog

STARLINK-31382

NORAD 59184 · 2024-045G

PAYLOAD ACTIVE UNKNOWN

§ Identity

Operator
Country
US
Launch date
2024-03-10
Launch site
AFETR
Launch vehicle
Mass (kg)
RCS (m²)

Purposes: comms

External: N2YO · Heavens-Above · Gunter

§ Orbital elements

Epoch: 2026-05-24T09:28:47.059104Z

Period
94.27 min
Inclination
43.0061°
Eccentricity
0.0001340
Mean motion
15.27569303 rev/d
Perigee alt
482.2 km
Apogee alt
484.0 km
Semi-major
6,861.2 km
B*
5.4925e-5
RAAN
24.6471°
Arg perigee
264.2082°
Mean anomaly
95.8617°
Rev number
12,474

§ Raw data

STARLINK-313821 59184U 24045G   26144.39498911  .00001249  00000+0  54925-4 0  99972 59184  43.0061  24.6471 0001340 264.2082  95.8617 15.27569303124744

JSON: /api/v1/satellites/59184 · /tle

For live sub-satellite position, see the globe view (requires WebGL).

§ Visibility from observer

Set your observer location to see the next 7 days of passes ≥ 10°. The values pass through the URL so the page stays shareable.

No JS? Fill the form by hand. The geolocation button needs JavaScript.